Regional Weather Roundup
Issued by NWS

Home | Current Version | Previous Version | Graphics & Text | Print | Product List | Glossary On
Versions: 1 2 3 4 5 6 7 8 9 10 11 12 13 14 15 16 17 18 19 20 21 22 23 24 25 26 27 28 29 30 31 32 33 34 35 36 37 38 39 40 41 42 43 44 45 46 47 48 49 50
000
ASUS43 KFSD 231802
RWRSD

WEATHER ROUNDUP FOR SOUTH DAKOTA
NATIONAL WEATHER SERVICE SIOUX FALLS SD
1200 PM CST SUN NOV 23 2014

NOTE: "FAIR" INDICATES FEW OR NO CLOUDS BELOW 12,000 FEET WITH NO
SIGNIFICANT WEATHER AND/OR OBSTRUCTIONS TO VISIBILITY.


SDZ001>005-009-010-012>017-231900-
NORTHWEST AND NORTH CENTRAL SOUTH DAKOTA

CITY           SKY/WX    TMP DP  RH WIND       PRES   REMARKS
BUFFALO          N/A     33  23  66 NW32G45   29.60R WCI  19
FAITH            N/A     38  24  57 NW29G46   29.62S
MOBRIDGE       PTSUNNY   38  26  62 NW30G38   29.58R
$$

SDZ012>016-024>037-041>051-057-063-072>074-231900-
SOUTHWEST AND SOUTH CENTRAL SOUTH DAKOTA

CITY           SKY/WX    TMP DP  RH WIND       PRES   REMARKS
RAPID CTY ARPT SUNNY     43  19  38 NW36G55   29.70R
PIERRE         CLOUDY    41  29  62 NW18      29.62F
CUSTER         MOSUNNY   31  15  52 NW15G29   29.69F WCI  20
ELLSWORTH AFB  SUNNY     42  20  41 NW43G54   29.66F
PHILIP         SUNNY     50  25  37 NW33G44   29.66S
PINE RIDGE     SUNNY     42  22  44 NW10      29.74F
WINNER         FAIR      46  28  49 NW24G36   29.66F
$$

SDZ004>011-016>023-039-040-231900-
NORTHEAST SOUTH DAKOTA

CITY           SKY/WX    TMP DP  RH WIND       PRES   REMARKS
ABERDEEN       CLOUDY    39  31  72 W15G23    29.55S
WATERTOWN      CLOUDY    38  31  76 W15G22    29.51F
SISSETON         N/A     40  33  76 NW21      29.47F
$$

SDZ017-020-022-023-036>040-048>070-231900-
SOUTHEAST SOUTH DAKOTA

CITY           SKY/WX    TMP DP  RH WIND       PRES   REMARKS
SIOUX FALLS    CLOUDY    40  36  86 NW21      29.53F
HURON          CLOUDY    40  32  73 W17       29.58S
YANKTON        CLOUDY    43  36  75 NW16      29.58F
$$

ABBREVIATIONS USED IN REMARKS
   TC - TEMPERATURE IN CELSIUS
  WCI - WIND CHILL INDEX
   HX - HEAT INDEX
  VSB - VISIBILITY




USA.gov is the U.S. government's official web portal to all federal, state and local government web resources and services.